DELTA 1 DEB, 42087

Orbit data source: Space-Track

DELTA 1 DEB, 42087 is space debris in SSO originally from a launch on Sun, 15 Dec 1968 UTC launched from the Air Force Western Test Range (AFWTR). Debris objects in space refer to the collection of defunct objects orbiting the Earth. Examples of debris include non-operational satellites, rocket bodies, and fragments generated from explosions, collisions, or faulty payload assembly.

Loading next visibility...
Identifier
42087, 1968-114P
Orbit
SSO
Country
Flag of USUS
Related business
Manufacturer
Aerojet
Mission
Spacecraft
Bus & Motor
Unknown
Mass
Unknown
Launch date (UTC)
1968-12-15 (58 years ago)
Launch vehicle
Unknown
Launch site
Air Force Western Test Range (AFWTR)
Object type
Payload
Rocket body
Debris
Shape & HBR
Unknown shape, 0.073 m
Radar Cross Section
Medium (>0.1 m² and <1 m²)

Expand to show TLE details & history
Last TLE update: 4 days ago

TLE from 4 days ago
0 DELTA 1 DEB
1 42087U 68114P   26263.02903074  .00000725  00000-0  56837-2 0  9990
2 42087 101.4339 206.9748 0192142 157.0939 203.8836 12.35794660577870
Epoch: 2026-09-20T00:41Z
TLE epoch observation values (Epoch: 2026-09-20T00:41:48.255Z)
Latitude
-0°
Longitude
-162.40535°
Altitude
1,666.376 km
Speed
6.978 km/s
True Right ascension
13h 47m 53s
True Declination
0° 00' 00"
Sunlit
Object was in daylight at epoch
Visualization orbit readout
Latitude
Unknown
Longitude
Unknown
Altitude
Unknown
Speed
Unknown
Apparent Right ascension
Unknown
Apparent Declination
Unknown
Sunlit
N/A
Visualization observer readout
Local Sidereal Time
22:30:35
Azimuth
Unknown
Elevation
Unknown
Doppler factor
Unknown
Orbital elements
Apogee altitude
1,673.822 km
Perigee altitude
1,370.231 km
Semi-major axis
7,900.164 km
Eccentricity
0.01921
Inclination
101.4339°
RAAN
206.9748°
Arg. of periapsis
157.0939°
True anomaly
203.01135°
Mean anomaly
203.8836°
Eccentric anomaly
203.44558°
Mean motion
3.09093 °/min
Orbital period
116.47 mins
BSTAR
0.0056837
Loading maneuver chart data...
Computing Atmospheric mass density...
Loading historical data...
Loading historical data...
Loading historical data...
Loading historical data...
Loading historical data...
Loading historical data...
Loading historical data...

Documentation

Showing up to 5 results
|